KF7SHY-14 Weather Reports


Display with metric or nautical units.
time (UTC)temp
F
wind
direction
speed
MPH
gust
MPH
rain 1hr
in
rain 24hr
in
rain mn
in
humidity
%
barometer
mb
20260507132348 0 253 1.0 3.0 0.00 0.00 0.00 1019.5
20260507131436 0 277 2.0 6.0 0.00 0.00 0.00 1019.4
20260507130346 0 272 2.0 5.0 0.00 0.00 0.00 1019.4
20260507124417 0 287 1.0 4.0 0.00 0.00 0.00 1019.4
20260507123349 0 299 1.0 4.0 0.00 0.00 0.00 1019.4
20260507122346 0 301 1.0 4.0 0.00 0.00 0.00 1019.5
20260507120245 0 295 2.0 7.0 0.00 0.00 0.00 1019.7
20260507115245 0 270 2.0 5.0 0.00 0.00 0.00 1019.7
20260507114301 0 280 3.0 9.0 0.00 0.00 0.00 1019.8
20260507113245 0 309 2.0 6.0 0.00 0.00 0.00 1019.8
20260507112245 0 314 2.0 5.0 0.00 0.00 0.00 1019.8
20260507111310 0 303 4.0 8.0 0.00 0.00 0.00 1019.8
20260507110246 0 278 5.0 10.0 0.00 0.00 0.00 1019.7
20260507105245 0 263 6.0 10.0 0.00 0.00 0.00 1019.7
20260507104245 0 266 5.0 9.0 0.00 0.00 0.00 1019.8
20260507103245 0 277 7.0 10.0 0.00 0.00 0.00 1019.9
20260507102246 0 276 6.0 10.0 0.00 0.00 0.00 1019.9
20260507101311 0 280 7.0 11.0 0.00 0.00 0.00 1019.9
20260507100245 0 284 7.0 10.0 0.00 0.00 0.00 1020.0
20260507095245 0 272 7.0 10.0 0.00 0.00 0.00 1020.1
20260507094246 0 265 7.0 11.0 0.00 0.00 0.00 1020.1
20260507093245 0 271 8.0 12.0 0.00 0.00 0.00 1020.2
20260507092246 0 262 8.0 12.0 0.00 0.00 0.00 1020.3
20260507091312 0 244 6.0 9.0 0.00 0.00 0.00 1020.4
20260507090245 0 231 6.0 11.0 0.00 0.00 0.00 1020.5
20260507085247 0 229 6.0 11.0 0.00 0.00 0.00 1020.5
20260507084246 0 221 5.0 9.0 0.00 0.00 0.00 1020.4
20260507083246 0 244 5.0 10.0 0.00 0.00 0.00 1020.4
20260507082245 0 249 5.0 9.0 0.00 0.00 0.00 1020.5
20260507081341 0 245 4.0 10.0 0.00 0.00 0.00 1020.5
20260507080245 0 250 5.0 10.0 0.00 0.00 0.00 1020.6
20260507075245 0 265 5.0 9.0 0.00 0.00 0.00 1020.6
20260507074245 0 274 5.0 9.0 0.00 0.00 0.00 1020.5
20260507073245 0 244 4.0 9.0 0.00 0.00 0.00 1020.5
20260507072246 0 248 4.0 10.0 0.00 0.00 0.00 1020.5
20260507071314 0 262 4.0 9.0 0.00 0.00 0.00 1020.5
20260507070245 0 254 6.0 10.0 0.00 0.00 0.00 1020.5
20260507065245 0 266 5.0 10.0 0.00 0.00 0.00 1020.6
20260507064246 0 260 4.0 8.0 0.00 0.00 0.00 1020.6
20260507063246 0 282 4.0 8.0 0.00 0.00 0.00 1020.6
20260507062245 0 276 6.0 11.0 0.00 0.00 0.00 1020.6
20260507061311 0 266 6.0 10.0 0.00 0.00 0.00 1020.5
20260507060245 0 258 5.0 10.0 0.00 0.00 0.00 1020.5
20260507055246 0 283 6.0 12.0 0.00 0.00 0.00 1020.6
20260507054246 0 255 5.0 9.0 0.00 0.00 0.00 1020.6
20260507053301 0 276 5.0 9.0 0.00 0.00 0.00 1020.6
20260507052246 0 251 5.0 9.0 0.00 0.00 0.00 1020.8
20260507051311 0 275 6.0 11.0 0.00 0.00 0.00 1020.8
20260507050245 0 267 6.0 14.0 0.00 0.00 0.00 1020.8
20260507045246 0 268 7.0 13.0 0.00 0.00 0.00 1020.7
20260507044246 0 260 8.0 15.0 0.00 0.00 0.00 1020.8
20260507043246 0 252 7.0 13.0 0.00 0.00 0.00 1020.8
20260507042338 0 260 8.0 15.0 0.00 0.00 0.00 1020.7
20260507041402 0 248 7.0 13.0 0.00 0.00 0.00 1020.8
20260507040338 0 250 6.0 13.0 0.00 0.00 0.00 1020.7
20260507035339 0 265 7.0 15.0 0.00 0.00 0.00 1020.6
20260507034344 0 276 8.0 13.0 0.00 0.00 0.00 1020.4
20260507033346 0 269 8.0 15.0 0.00 0.00 0.00 1020.3
20260507032346 0 287 7.0 12.0 0.00 0.00 0.00 1020.3
20260507030346 0 301 7.0 13.0 0.00 0.00 0.00 1020.3
20260507025347 0 304 7.0 13.0 0.00 0.00 0.00 1020.2
20260507024347 0 296 9.0 14.0 0.00 0.00 0.00 1020.1
20260507023350 0 297 8.0 15.0 0.00 0.00 0.00 1020.0
20260507022529 0 303 7.0 12.0 0.00 0.00 0.00 1019.9
20260507021430 0 302 7.0 15.0 0.00 0.00 0.00 1019.9
20260507020350 0 289 7.0 15.0 0.00 0.00 0.00 1019.8
20260507015350 0 290 8.0 13.0 0.00 0.00 0.00 1019.8
20260507014349 0 307 6.0 13.0 0.00 0.00 0.00 1019.8
20260507013349 0 278 7.0 13.0 0.00 0.00 0.00 1019.9
20260507012350 0 294 8.0 15.0 0.00 0.00 0.00 1019.9
20260507011414 0 293 8.0 16.0 0.00 0.00 0.00 1020.0
20260507010350 0 294 6.0 10.0 0.00 0.00 0.00 1020.2
20260507005415 0 295 9.0 16.0 0.00 0.00 0.00 1020.2
20260507004351 0 323 7.0 13.0 0.00 0.00 0.00 1020.3
20260507003350 0 290 8.0 14.0 0.00 0.00 0.00 1020.2
20260507002350 0 293 9.0 17.0 0.00 0.00 0.00 1020.2
20260507001415 0 298 6.0 14.0 0.00 0.00 0.00 1020.1
20260507000351 0 306 8.0 17.0 0.00 0.00 0.00 1020.1
20260506235354 0 290 7.0 13.0 0.00 0.00 0.00 1020.2
20260506234351 0 298 8.0 13.0 0.00 0.00 0.00 1020.2
20260506233351 0 297 7.0 17.0 0.00 0.00 0.00 1020.2
20260506232349 0 295 7.0 12.0 0.00 0.00 0.00 1020.2
20260506231412 0 297 6.0 15.0 0.00 0.00 0.00 1020.2
20260506230346 0 300 6.0 14.0 0.00 0.00 0.00 1020.3
20260506224346 0 283 5.0 14.0 0.00 0.00 0.00 1020.3
20260506223416 0 297 6.0 14.0 0.00 0.00 0.00 1020.4
20260506222346 0 321 8.0 15.0 0.00 0.00 0.00 1020.5
20260506221410 0 315 8.0 18.0 0.00 0.00 0.00 1020.6
20260506220346 0 309 8.0 15.0 0.00 0.00 0.00 1020.5
20260506215346 0 308 6.0 11.0 0.00 0.00 0.00 1020.5
20260506214345 0 305 5.0 14.0 0.00 0.00 0.00 1020.5
20260506213345 0 325 5.0 9.0 0.00 0.00 0.00 1020.5
20260506212345 0 304 7.0 18.0 0.00 0.00 0.00 1020.4
20260506210344 0 293 8.0 14.0 0.00 0.00 0.00 1020.4
20260506205344 0 280 7.0 14.0 0.00 0.00 0.00 1020.4
20260506204344 0 271 6.0 14.0 0.00 0.00 0.00 1020.3
20260506203345 0 281 7.0 10.0 0.00 0.00 0.00 1020.3
20260506202345 0 259 6.0 13.0 0.00 0.00 0.00 1020.3
20260506201409 0 273 8.0 18.0 0.00 0.00 0.00 1020.4
20260506200345 0 284 8.0 15.0 0.00 0.00 0.00 1020.4
20260506195344 0 281 9.0 16.0 0.00 0.00 0.00 1020.3
20260506194344 0 265 8.0 16.0 0.00 0.00 0.00 1020.2
20260506193344 0 264 7.0 12.0 0.00 0.00 0.00 1020.0
20260506192344 0 257 6.0 11.0 0.00 0.00 0.00 1019.8
20260506191411 0 258 7.0 15.0 0.00 0.00 0.00 1020.0
20260506190342 0 295 5.0 13.0 0.00 0.00 0.00 1020.1
20260506185342 0 249 6.0 14.0 0.00 0.00 0.00 1020.1
20260506184343 0 249 5.0 12.0 0.00 0.00 0.00 1020.1
20260506183342 0 236 3.0 12.0 0.00 0.00 0.00 1020.3
20260506182407 0 240 5.0 12.0 0.00 0.00 0.00 1020.2
20260506181407 0 266 5.0 12.0 0.00 0.00 0.00 1020.3
20260506180343 0 311 2.0 6.0 0.00 0.00 0.00 1020.2
20260506175345 0 302 2.0 4.0 0.00 0.00 0.00 1020.1
20260506174342 0 289 2.0 6.0 0.00 0.00 0.00 1020.1
20260506173343 0 292 3.0 6.0 0.00 0.00 0.00 1020.0
20260506172343 0 304 2.0 6.0 0.00 0.00 0.00 1019.9
20260506171407 0 270 2.0 6.0 0.00 0.00 0.00 1019.9
20260506170342 0 255 3.0 7.0 0.00 0.00 0.00 1019.9
20260506165342 0 282 4.0 6.0 0.00 0.00 0.00 1019.9
20260506164343 0 271 4.0 9.0 0.00 0.00 0.00 1019.9
20260506163342 0 255 4.0 9.0 0.00 0.00 0.00 1019.9
20260506162342 0 259 5.0 9.0 0.00 0.00 0.00 1019.9
20260506161405 0 246 4.0 10.0 0.00 0.00 0.00 1019.9
20260506160445 0 265 4.0 9.0 0.00 0.00 0.00 1020.0
20260506155340 0 297 2.0 4.0 0.00 0.00 0.00 1019.9
20260506154343 0 342 2.0 4.0 0.00 0.00 0.00 1019.6
20260506153344 0 69 1.0 2.0 0.00 0.00 0.00 1019.2
20260506152345 0 14 1.0 3.0 0.00 0.00 0.00 1019.1
20260506151407 0 199 1.0 1.0 0.00 0.00 0.00 1019.2
20260506150343 0 211 1.0 4.0 0.00 0.00 0.00 1019.6
20260506145343 0 244 3.0 7.0 0.00 0.00 0.00 1019.8
20260506144340 0 273 4.0 8.0 0.00 0.00 0.00 1019.8
20260506143500 0 264 3.0 8.0 0.00 0.00 0.00 1019.8
20260506142340 0 265 3.0 7.0 0.00 0.00 0.00 1019.7
20260506141407 0 256 1.0 4.0 0.00 0.00 0.00 1019.6
20260506140342 0 317 1.0 3.0 0.00 0.00 0.00 1019.5
20260506134345 0 343 1.0 2.0 0.00 0.00 0.00 1019.2
20260506133347 0 337 1.0 1.0 0.00 0.00 0.00 1019.3